Location: Unspecified
(0.0000°N, 0.0000°E)
Time: 01:22:46
(UTC+00:00)

Traac - Pass Details

Date: 16 December 2025
Orbit: 951 x 1102 km, 32.4° (Epoch: 19 January)

Event Time Altitude Azimuth Distance (km) Brightness Sun altitude
Exits shadow 04:58:16 13° 321° (NW) 2,662 9.7 -13.1°
Maximum altitude 05:04:27 52° 34° (NE) 1,317 8.8 -11.7°
Drops below altitude 10° 05:11:28 10° 109° (ESE) 2,947 12.1 -10.1°
Sets 05:14:19 0° 114° (ESE) 3,909 13.6 -9.5°
